Huvudsida
METAR-TAF:

METAR-TAF

Flygplatser :

Stokmarknes flygplats. Skagen

Stokmarknes, Norge

latitud: 68-35N, longitud: 015-01E, höjd: 0 m

Aktuellt väderrapport

Denna rapport gjordes för 10 timmar och 16 minuter sedan, klockan 19:50 UTC
Vind 6 kt från nord
Temperatur 8°C
Fuktighet 81%
Tryck 986 hPa
Sikt 10 km eller mer
Få moln på en höjd av 4000 ft
Spridda moln på en höjd av 6000 ft

METAR: ENSK 211950Z 36006KT 9999 FEW040 SCT060 08/05 Q0986

Tid: 08:06 (06:06 UTC)


TAF: saknas

Aktuella väderrapporter och prognoser från 4000 flygplatser (METAR- och TAF-rapporter).

De tillgängliga stationerna syns som gula och röda prickar på kartan.

För musen över prickarna för att se namnen på stationerna.

Klicka sedan för att få väderrapporter och prognoser.

För att ändra kartan: Klicka på de gröna knapparna med ett svart kors på för att zooma in; den gröna knappen med ett streck på för att zooma ut; eller på de gröna pilarna för angränsande kartor.


METAR-TAF: